TKJ4145 LTFD-LTAC

Flight info

Callsign TKJ4145
Flight time 0h 48m
Altitude 31000
Route BIMDU UZ713 INBET UN604 BIG DCT YAA DCT LATGA
Aircraft B738/M-SDE2E3FGHIRWXY/LB1

Departure

Time 2026-04-29 13:02
Airport Balıkesir Koca Seyit Airport (LTFD)

Arrival

Time 2026-04-29 13:50
Airport Esenboğa International Airport (LTAC)
Time Latitude Longitude Altitude Speed Heading
2026-04-29 12:46 39.54955 27.01196 51 ft 0 kts 143°
2026-04-29 12:56 39.54954 27.01196 51 ft 0 kts 143°
2026-04-29 12:56 39.54949 27.01195 51 ft 1 kts 194°
2026-04-29 12:56 39.54946 27.01185 51 ft 2 kts 248°
2026-04-29 12:57 39.54956 27.01172 51 ft 3 kts 335°
2026-04-29 12:57 39.54977 27.01147 49 ft 5 kts 282°
2026-04-29 12:57 39.54997 27.01099 50 ft 7 kts 322°
2026-04-29 12:57 39.55048 27.01054 50 ft 10 kts 325°
2026-04-29 12:58 39.55116 27.00992 50 ft 14 kts 325°
2026-04-29 12:58 39.55164 27.00887 49 ft 15 kts 254°
2026-04-29 12:58 39.55099 27.00770 48 ft 17 kts 233°
2026-04-29 12:58 39.55017 27.00638 47 ft 20 kts 230°
2026-04-29 12:59 39.54936 27.00485 48 ft 21 kts 234°
2026-04-29 12:59 39.54851 27.00336 47 ft 20 kts 236°
2026-04-29 12:59 39.54767 27.00191 48 ft 20 kts 234°
2026-04-29 12:59 39.54684 27.00042 46 ft 22 kts 234°
2026-04-29 13:00 39.54595 26.99881 43 ft 22 kts 234°
2026-04-29 13:00 39.54504 26.99737 43 ft 19 kts 214°
2026-04-29 13:00 39.54426 26.99698 42 ft 11 kts 223°
2026-04-29 13:00 39.54433 26.99635 43 ft 3 kts 339°
2026-04-29 13:01 39.54455 26.99643 59 ft 3 kts 27°
2026-04-29 13:01 39.54471 26.99667 23 ft 4 kts 53°
2026-04-29 13:01 39.54491 26.99702 48 ft 9 kts 53°
2026-04-29 13:01 39.54709 27.00087 46 ft 99 kts 52°
2026-04-29 13:02 39.55250 27.01082 275 ft 155 kts 59°
2026-04-29 13:02 39.55887 27.02301 1233 ft 171 kts 54°
2026-04-29 13:02 39.56644 27.03597 2216 ft 188 kts 54°
2026-04-29 13:02 39.57374 27.05062 3151 ft 197 kts 58°
2026-04-29 13:03 39.58034 27.06530 3986 ft 182 kts 52°
2026-04-29 13:03 39.58821 27.07847 4931 ft 189 kts 49°
2026-04-29 13:03 39.59663 27.09201 5823 ft 195 kts 48°
2026-04-29 13:03 39.60516 27.10599 6710 ft 198 kts 49°
2026-04-29 13:04 39.61385 27.12053 7374 ft 213 kts 49°
2026-04-29 13:04 39.62327 27.13654 7940 ft 235 kts 49°
2026-04-29 13:04 39.63344 27.15414 8466 ft 257 kts 50°
2026-04-29 13:04 39.64451 27.17357 9018 ft 277 kts 51°
2026-04-29 13:05 39.65611 27.19408 9513 ft 286 kts 52°
2026-04-29 13:05 39.66798 27.21515 10084 ft 293 kts 51°
2026-04-29 13:05 39.68001 27.23655 10555 ft 293 kts 51°
2026-04-29 13:05 39.69200 27.25797 11039 ft 294 kts 51°
2026-04-29 13:06 39.70408 27.27949 11520 ft 298 kts 51°
2026-04-29 13:06 39.71805 27.30069 11809 ft 323 kts 36°
2026-04-29 13:06 39.73877 27.31330 12235 ft 337 kts
2026-04-29 13:06 39.76226 27.31370 13055 ft 341 kts 353°
2026-04-29 13:07 39.78630 27.31428 13845 ft 354 kts 11°
2026-04-29 13:07 39.80864 27.32824 14712 ft 362 kts 36°
2026-04-29 13:07 39.82568 27.35187 15563 ft 368 kts 54°
2026-04-29 13:07 39.83688 27.38219 16333 ft 378 kts 73°
2026-04-29 13:08 39.84259 27.41582 17096 ft 384 kts 78°
2026-04-29 13:08 39.84699 27.45045 17865 ft 390 kts 80°
2026-04-29 13:08 39.85098 27.48571 18582 ft 396 kts 80°
2026-04-29 13:08 39.85494 27.52139 19240 ft 401 kts 80°
2026-04-29 13:09 39.85903 27.55751 19923 ft 405 kts 80°
2026-04-29 13:09 39.86327 27.59392 20594 ft 409 kts 80°
2026-04-29 13:09 39.86768 27.63084 21213 ft 414 kts 79°
2026-04-29 13:09 39.87220 27.66818 21822 ft 419 kts 79°
2026-04-29 13:10 39.87680 27.70581 22446 ft 424 kts 79°
2026-04-29 13:10 39.88145 27.74370 23078 ft 428 kts 79°
2026-04-29 13:10 39.88618 27.78231 23650 ft 433 kts 79°
2026-04-29 13:10 39.89089 27.82069 24161 ft 436 kts 79°
2026-04-29 13:11 39.89566 27.85982 24691 ft 439 kts 79°
2026-04-29 13:11 39.90052 27.89972 25214 ft 442 kts 79°
2026-04-29 13:11 39.90528 27.93898 25701 ft 445 kts 79°
2026-04-29 13:11 39.91012 27.97898 26184 ft 449 kts 79°
2026-04-29 13:12 39.91499 28.01939 26657 ft 453 kts 79°
2026-04-29 13:12 39.91988 28.06005 27127 ft 456 kts 79°
2026-04-29 13:12 39.92478 28.10094 27591 ft 459 kts 79°
2026-04-29 13:12 39.92970 28.14210 28027 ft 462 kts 79°
2026-04-29 13:13 39.93465 28.18365 28473 ft 465 kts 79°
2026-04-29 13:13 39.93961 28.22548 28912 ft 468 kts 79°
2026-04-29 13:13 39.94458 28.26747 29338 ft 471 kts 79°
2026-04-29 13:13 39.94958 28.30991 29819 ft 472 kts 79°
2026-04-29 13:14 39.95453 28.35210 30399 ft 470 kts 79°
2026-04-29 13:14 39.95944 28.39406 30907 ft 468 kts 79°
2026-04-29 13:14 39.96432 28.43618 31108 ft 473 kts 79°
2026-04-29 13:15 39.97398 28.52245 31117 ft 488 kts 79°
2026-04-29 13:15 39.98380 28.60973 31106 ft 489 kts 79°
2026-04-29 13:16 39.99378 28.69748 31107 ft 488 kts 79°
2026-04-29 13:16 40.00375 28.78485 31096 ft 487 kts 79°
2026-04-29 13:17 40.01367 28.87220 31093 ft 487 kts 79°
2026-04-29 13:17 40.02352 28.95966 31095 ft 487 kts 79°
2026-04-29 13:18 40.03329 29.04714 31094 ft 487 kts 79°
2026-04-29 13:18 40.04299 29.13458 31084 ft 488 kts 79°
2026-04-29 13:19 40.05265 29.22226 31088 ft 488 kts 79°
2026-04-29 13:19 40.06226 29.31006 31087 ft 489 kts 79°
2026-04-29 13:20 40.07183 29.39811 31098 ft 489 kts 79°
2026-04-29 13:20 40.08132 29.48615 31094 ft 490 kts 79°
2026-04-29 13:21 40.09070 29.57380 31102 ft 491 kts 79°
2026-04-29 13:21 40.10008 29.66213 31105 ft 491 kts 79°
2026-04-29 13:22 40.10941 29.75056 31100 ft 492 kts 79°
2026-04-29 13:22 40.11866 29.83897 31102 ft 491 kts 79°
2026-04-29 13:23 40.12783 29.92745 31110 ft 491 kts 79°
2026-04-29 13:23 40.13696 30.01600 31104 ft 491 kts 79°
2026-04-29 13:24 40.14602 30.10446 31112 ft 491 kts 80°
2026-04-29 13:24 40.15349 30.17803 31104 ft 491 kts 80°
2026-04-29 13:25 40.16383 30.28065 31093 ft 482 kts 80°
2026-04-29 13:25 40.17091 30.35179 31103 ft 471 kts 79°
2026-04-29 13:25 40.17658 30.40874 31112 ft 473 kts 79°
2026-04-29 13:26 40.18362 30.47973 31104 ft 474 kts 79°
2026-04-29 13:26 40.19203 30.56521 31105 ft 474 kts 80°
2026-04-29 13:27 40.20037 30.65084 31099 ft 475 kts 80°
2026-04-29 13:27 40.20868 30.73685 31089 ft 476 kts 80°
2026-04-29 13:28 40.21283 30.77998 30841 ft 479 kts 80°
2026-04-29 13:28 40.21695 30.82314 30584 ft 475 kts 80°
2026-04-29 13:28 40.22101 30.86581 30361 ft 471 kts 80°
2026-04-29 13:28 40.22499 30.90779 30106 ft 470 kts 80°
2026-04-29 13:29 40.22904 30.95068 29813 ft 468 kts 80°
2026-04-29 13:29 40.23297 30.99236 29535 ft 467 kts 80°
2026-04-29 13:29 40.23692 31.03447 29257 ft 465 kts 80°
2026-04-29 13:29 40.24084 31.07645 28977 ft 464 kts 80°
2026-04-29 13:30 40.24475 31.11840 28701 ft 462 kts 80°
2026-04-29 13:30 40.24861 31.16006 28433 ft 461 kts 80°
2026-04-29 13:30 40.25246 31.20166 28147 ft 459 kts 80°
2026-04-29 13:30 40.25626 31.24301 27877 ft 457 kts 81°
2026-04-29 13:31 40.26004 31.28427 27630 ft 455 kts 81°
2026-04-29 13:31 40.26378 31.32536 27361 ft 454 kts 81°
2026-04-29 13:31 40.26750 31.36630 27109 ft 452 kts 81°
2026-04-29 13:31 40.27121 31.40718 26850 ft 450 kts 81°
2026-04-29 13:32 40.27483 31.44737 26599 ft 449 kts 81°
2026-04-29 13:32 40.27852 31.48842 26341 ft 447 kts 81°
2026-04-29 13:32 40.28208 31.52827 26093 ft 445 kts 81°
2026-04-29 13:32 40.28566 31.56852 25846 ft 444 kts 81°
2026-04-29 13:33 40.28921 31.60853 25390 ft 439 kts 81°
2026-04-29 13:33 40.29270 31.64804 24906 ft 435 kts 81°
2026-04-29 13:33 40.29615 31.68722 24403 ft 431 kts 82°
2026-04-29 13:33 40.29956 31.72608 23911 ft 428 kts 82°
2026-04-29 13:34 40.30295 31.76480 23334 ft 427 kts 82°
2026-04-29 13:34 40.30629 31.80326 22793 ft 423 kts 82°
2026-04-29 13:34 40.30961 31.84149 22241 ft 420 kts 82°
2026-04-29 13:34 40.31287 31.87932 21726 ft 416 kts 82°
2026-04-29 13:35 40.31609 31.91686 21211 ft 412 kts 82°
2026-04-29 13:35 40.31927 31.95400 20731 ft 408 kts 82°
2026-04-29 13:35 40.32242 31.99086 20228 ft 405 kts 82°
2026-04-29 13:35 40.32553 32.02733 19747 ft 401 kts 82°
2026-04-29 13:36 40.32860 32.06354 19268 ft 399 kts 82°
2026-04-29 13:36 40.33167 32.09949 18785 ft 396 kts 82°
2026-04-29 13:36 40.33540 32.13453 18405 ft 390 kts 80°
2026-04-29 13:36 40.33962 32.16952 17881 ft 387 kts 79°
2026-04-29 13:37 40.34389 32.20428 17378 ft 384 kts 79°
2026-04-29 13:37 40.34803 32.23870 16888 ft 381 kts 80°
2026-04-29 13:37 40.35205 32.27302 16402 ft 379 kts 80°
2026-04-29 13:37 40.35597 32.30701 15909 ft 376 kts 80°
2026-04-29 13:38 40.35903 32.34093 15428 ft 374 kts 89°
2026-04-29 13:38 40.35510 32.37457 14979 ft 372 kts 104°
2026-04-29 13:38 40.34849 32.40721 14515 ft 369 kts 105°
2026-04-29 13:38 40.34179 32.43950 14048 ft 366 kts 105°
2026-04-29 13:39 40.33523 32.47164 13560 ft 364 kts 105°
2026-04-29 13:39 40.32883 32.50353 13046 ft 361 kts 104°
2026-04-29 13:39 40.32257 32.53528 12576 ft 358 kts 104°
2026-04-29 13:39 40.31641 32.56669 12112 ft 355 kts 104°
2026-04-29 13:40 40.31029 32.59788 11643 ft 352 kts 104°
2026-04-29 13:40 40.30398 32.62890 11176 ft 349 kts 109°
2026-04-29 13:40 40.29168 32.65579 10725 ft 346 kts 136°
2026-04-29 13:40 40.27167 32.67228 10419 ft 336 kts 163°
2026-04-29 13:41 40.24917 32.67643 10280 ft 321 kts 185°
2026-04-29 13:41 40.22769 32.67104 10147 ft 309 kts 196°
2026-04-29 13:41 40.20773 32.66376 10025 ft 294 kts 197°
2026-04-29 13:41 40.18862 32.65670 10011 ft 277 kts 197°
2026-04-29 13:42 40.17063 32.65027 9946 ft 261 kts 197°
2026-04-29 13:42 40.15333 32.64419 9685 ft 252 kts 197°
2026-04-29 13:42 40.13673 32.63843 9426 ft 243 kts 197°
2026-04-29 13:42 40.12049 32.63284 9106 ft 242 kts 197°
2026-04-29 13:43 40.10394 32.62715 8703 ft 249 kts 193°
2026-04-29 13:43 40.08651 32.62887 8325 ft 259 kts 160°
2026-04-29 13:43 40.07214 32.64285 8030 ft 260 kts 125°
2026-04-29 13:43 40.06497 32.66450 7732 ft 267 kts 105°
2026-04-29 13:44 40.06073 32.68762 7545 ft 257 kts 102°
2026-04-29 13:44 40.05693 32.71012 7295 ft 249 kts 102°
2026-04-29 13:44 40.05194 32.73122 7057 ft 241 kts 118°
2026-04-29 13:44 40.04271 32.74888 6835 ft 231 kts 128°
2026-04-29 13:45 40.03301 32.76519 6619 ft 224 kts 128°
2026-04-29 13:45 40.02372 32.78117 6397 ft 219 kts 128°
2026-04-29 13:45 40.01462 32.79708 6178 ft 219 kts 127°
2026-04-29 13:45 40.00553 32.81321 5955 ft 220 kts 127°
2026-04-29 13:46 39.99654 32.82926 5715 ft 217 kts 125°
2026-04-29 13:46 39.99220 32.84733 5619 ft 207 kts 81°
2026-04-29 13:46 39.99802 32.86369 5612 ft 201 kts 47°
2026-04-29 13:46 40.00695 32.87697 5604 ft 188 kts 41°
2026-04-29 13:47 40.01646 32.88882 5589 ft 192 kts 39°
2026-04-29 13:47 40.02702 32.89988 5266 ft 195 kts 32°
2026-04-29 13:47 40.03768 32.91007 5005 ft 185 kts 33°
2026-04-29 13:47 40.04779 32.91975 4816 ft 175 kts 33°
2026-04-29 13:48 40.05734 32.92888 4544 ft 163 kts 33°
2026-04-29 13:48 40.06628 32.93752 4270 ft 157 kts 34°
2026-04-29 13:48 40.07510 32.94621 3989 ft 159 kts 34°
2026-04-29 13:48 40.08390 32.95475 3765 ft 157 kts 34°
2026-04-29 13:49 40.09271 32.96305 3624 ft 154 kts 32°
2026-04-29 13:49 40.10130 32.97111 3435 ft 152 kts 31°
2026-04-29 13:49 40.10971 32.97915 3269 ft 149 kts 31°
2026-04-29 13:49 40.11794 32.98694 3122 ft 147 kts 32°
2026-04-29 13:50 40.12554 32.99397 3119 ft 112 kts 36°
2026-04-29 13:50 40.13055 32.99886 3121 ft 70 kts 37°
2026-04-29 13:50 40.13317 33.00139 3126 ft 21 kts 36°
2026-04-29 13:50 40.13364 33.00238 3126 ft 10 kts 93°
2026-04-29 13:51 40.13340 33.00291 3127 ft 2 kts 127°
2026-04-29 13:51 40.13331 33.00305 3124 ft 2 kts 127°
2026-04-29 13:51 40.13323 33.00321 3125 ft 3 kts 127°
2026-04-29 13:51 40.13294 33.00359 3128 ft 9 kts 152°
2026-04-29 13:52 40.13222 33.00354 3126 ft 11 kts 205°
2026-04-29 13:52 40.13160 33.00295 3123 ft 11 kts 217°
2026-04-29 13:52 40.13097 33.00238 3124 ft 11 kts 214°
2026-04-29 13:52 40.13036 33.00184 3123 ft 10 kts 214°
2026-04-29 13:53 40.12976 33.00131 3123 ft 10 kts 214°
2026-04-29 13:53 40.12921 33.00077 3120 ft 10 kts 220°
2026-04-29 13:53 40.12868 33.00020 3124 ft 10 kts 218°
2026-04-29 13:53 40.12805 32.99957 3123 ft 14 kts 216°
2026-04-29 13:54 40.12706 32.99862 3122 ft 21 kts 216°
2026-04-29 13:54 40.12569 32.99733 3121 ft 27 kts 215°
2026-04-29 13:54 40.12414 32.99589 3119 ft 27 kts 215°
2026-04-29 13:54 40.12264 32.99449 3118 ft 25 kts 217°
2026-04-29 13:55 40.12132 32.99310 3116 ft 24 kts 217°
2026-04-29 13:55 40.11996 32.99199 3114 ft 23 kts 212°
2026-04-29 13:55 40.11872 32.99079 3113 ft 22 kts 219°
2026-04-29 13:55 40.11753 32.98958 3112 ft 21 kts 216°
2026-04-29 13:56 40.11665 32.98894 3112 ft 10 kts 165°
2026-04-29 13:56 40.11620 32.98961 3112 ft 10 kts 140°
2026-04-29 13:56 40.11563 32.98946 3112 ft 10 kts 237°
2026-04-29 13:56 40.11526 32.98876 3112 ft 9 kts 229°
2026-04-29 13:57 40.11475 32.98826 3112 ft 9 kts 215°
2026-04-29 13:57 40.11444 32.98795 3112 ft 2 kts 221°
2026-04-29 13:57 40.11431 32.98789 3112 ft 2 kts 184°
2026-04-29 13:57 40.11419 32.98795 3112 ft 3 kts 152°
2026-04-29 13:58 40.11391 32.98837 3112 ft 6 kts 127°
2026-04-29 13:58 40.11384 32.98849 3112 ft 0 kts 127°